1514538000.51,50921,6.0,71882.0,-9.55,-10.01,-10.01,0,*56
1514538001.71,50922,6.0,71880.8,-9.55,-10.01,-9.97,0,*62
1514538002.94,50923,6.0,71880.8,-9.57,-10.01,-10.01,0,*56
1514538004.15,50924,6.0,71878.5,-9.57,-10.01,-9.97,0,*66
1514538005.37,50925,6.0,71880.5,-9.57,-10.01,-9.97,0,*67
1514538006.6,50926,6.0,71878.8,-9.57,-9.97,-10.01,0,*64
1514538007.79,50927,6.0,71882.5,-9.55,-10.01,-9.97,0,*67
1514538009.0,50928,6.0,71880.0,-9.57,-9.97,-9.97,0,*5D
1514538010.23,50929,6.0,71876.8,-9.57,-9.97,-10.01,0,*6B
1514538011.42,50930,6.0,71882.3,-9.55,-9.97,-9.97,0,*56
1514538012.65,50931,6.0,71878.5,-9.57,-10.01,-10.01,0,*55
1514538013.84,50932,6.0,71878.8,-9.55,-10.01,-9.97,0,*63
1514538015.03,50933,6.0,71882.0,-9.55,-9.97,-9.97,0,*55
1514538016.24,50934,6.0,71880.5,-9.57,-9.97,-9.97,0,*50
1514538017.46,50935,6.0,71878.0,-9.57,-10.01,-9.97,0,*66
1514538018.68,50936,6.0,71880.5,-9.57,-10.01,-9.97,0,*65
1514538019.89,50937,6.0,71882.0,-9.57,-9.97,-9.97,0,*53
1514538021.08,50938,6.0,71878.3,-9.55,-9.97,-9.97,0,*5E
1514538022.29,50939,6.0,71882.3,-9.57,-9.89,-9.97,0,*52
1514538023.5,50940,6.0,71878.5,-9.55,-10.01,-10.01,0,*51
1514538024.71,50941,6.0,71882.5,-9.57,-9.97,-9.97,0,*52
1514538025.92,50942,6.0,71880.5,-9.57,-9.97,-9.89,0,*5E
1514538027.13,50943,6.0,71880.3,-9.57,-9.97,-9.97,0,*50
1514538028.34,50944,6.0,71880.5,-9.57,-9.97,-9.89,0,*58
1514538029.53,50945,6.0,71878.8,-9.55,-9.97,-9.89,0,*5B
1514538030.72,50946,6.0,71880.8,-9.55,-9.97,-9.97,0,*57
1514538031.93,50947,6.0,71878.5,-9.57,-9.97,-9.89,0,*5B
1514538033.13,50948,6.0,71884.5,-9.55,-10.01,-9.97,0,*6E
1514538034.32,50949,6.0,71876.3,-9.55,-10.01,-9.97,0,*6F
1514538035.54,50950,6.0,71882.0,-9.57,-9.97,-10.01,0,*65
1514538036.73,50951,6.0,71876.8,-9.55,-9.97,-9.97,0,*51
1514538037.95,50952,6.0,71876.0,-9.57,-10.01,-9.89,0,*68
1514538039.18,50953,6.0,71878.0,-9.57,-10.01,-10.01,0,*51
1514538040.4,50954,6.0,71876.0,-9.57,-10.01,-9.97,0,*61
1514538041.63,50955,6.0,71878.3,-9.57,-10.01,-10.01,0,*57
1514538042.83,50956,6.0,71876.5,-9.55,-9.97,-10.01,0,*61
1514538044.02,50957,6.0,71880.5,-9.55,-9.97,-9.97,0,*57
1514538045.2,50958,6.0,71880.3,-9.55,-9.89,-9.97,0,*57
1514538046.39,50959,6.0,71880.8,-9.55,-9.89,-9.97,0,*56
1514538047.59,50960,6.0,71878.8,-9.55,-9.97,-10.01,0,*64
1514538048.8,50961,6.0,71878.0,-9.57,-9.97,-9.97,0,*50
1514538049.99,50962,6.0,71882.0,-9.55,-9.97,-9.89,0,*5E
1514538051.18,50963,6.0,71880.3,-9.55,-9.97,-9.97,0,*50
1514538052.36,50964,6.0,71878.8,-9.55,-9.97,-9.97,0,*57
1514538053.55,50965,6.0,71878.0,-9.55,-9.97,-9.97,0,*56
1514538054.77,50966,6.0,71882.3,-9.57,-9.97,-9.97,0,*57
1514538055.98,50967,6.0,71876.0,-9.57,-10.01,-9.97,0,*61
1514538057.17,50968,6.0,71878.5,-9.55,-9.89,-9.97,0,*54
1514538058.36,50969,6.0,71876.0,-9.55,-10.01,-9.97,0,*6D
1514538059.58,50970,6.0,71880.8,-9.57,-9.97,-9.97,0,*50
1514538060.76,50971,6.0,71878.8,-9.55,-9.97,-9.89,0,*5C
1514538061.97,50972,6.0,71880.0,-9.57,-9.97,-9.97,0,*52
1514538063.16,50973,6.0,71880.3,-9.55,-9.97,-9.97,0,*51
1514538064.35,50974,6.0,71878.5,-9.55,-9.97,-9.97,0,*56
1514538065.55,50975,6.0,71880.8,-9.55,-10.01,-9.97,0,*60
1514538066.75,50976,6.0,71878.5,-9.55,-9.97,-10.01,0,*63
1514538067.97,50977,6.0,71876.3,-9.57,-10.01,-9.97,0,*60
1514538069.17,50978,6.0,71878.0,-9.55,-9.97,-10.01,0,*6D
1514538070.37,50979,6.0,71876.3,-9.55,-10.01,-10.01,0,*5B
1514538071.57,50980,6.0,71880.3,-9.55,-9.97,-10.01,0,*6A
1514538072.77,50981,6.0,71878.8,-9.55,-9.97,-10.01,0,*6B
1514538073.96,50982,6.0,71878.5,-9.55,-9.97,-9.97,0,*5F
1514538075.18,50983,6.0,71878.8,-9.57,-10.01,-9.97,0,*6B
1514538076.39,50984,6.0,71880.3,-9.57,-9.97,-9.97,0,*5B
1514538077.59,50985,6.0,71876.5,-9.55,-10.01,-9.97,0,*6F
1514538078.79,50986,6.0,71878.3,-9.55,-10.01,-10.01,0,*5B
1514538079.99,50987,6.0,71882.5,-9.55,-10.09,-10.01,0,*52
1514538081.19,50988,6.0,71880.0,-9.55,-10.01,-9.97,0,*62
1514538082.41,50989,6.0,71878.0,-9.57,-10.01,-9.97,0,*61
1514538083.61,50990,6.0,71876.0,-9.55,-9.97,-10.01,0,*6B
1514538084.81,50991,6.0,71878.8,-9.55,-9.97,-10.01,0,*6A
1514538086.03,50992,6.0,71878.5,-9.57,-10.09,-10.01,0,*54
1514538087.25,50993,6.0,71882.5,-9.57,-10.01,-9.97,0,*6A
1514538088.46,50994,6.0,71878.3,-9.55,-10.01,-10.01,0,*58
1514538089.67,50995,6.0,71878.5,-9.55,-10.01,-10.01,0,*59
1514538090.87,50996,6.0,71880.5,-9.55,-9.97,-10.01,0,*6D
1514538092.05,50997,6.0,71882.8,-9.55,-9.97,-9.97,0,*5B
1514538093.25,50998,6.0,71880.3,-9.55,-10.01,-9.97,0,*63
1514538094.44,50999,6.0,71882.3,-9.55,-10.01,-9.97,0,*62
1514538095.65,51000,6.0,71882.8,-9.55,-10.01,-10.01,0,*5D
1514538096.84,51001,6.0,71884.0,-9.55,-9.97,-9.97,0,*5C
1514538098.03,51002,6.0,71884.8,-9.55,-9.97,-9.97,0,*5F
1514538099.21,51003,6.0,71882.0,-9.55,-9.97,-9.97,0,*5E
1514538100.41,51004,6.0,71884.8,-9.55,-10.01,-9.97,0,*6E
1514538101.6,51005,6.0,71882.0,-9.55,-10.01,-9.97,0,*6F
1514538102.8,51006,6.0,71886.0,-9.55,-10.01,-9.97,0,*6C
1514538104.02,51007,6.0,71886.5,-9.53,-9.93,-9.93,0,*5C
1514538105.22,51008,6.0,71882.3,-9.55,-10.01,-10.01,0,*55
1514538106.42,51009,6.0,71882.8,-9.55,-9.97,-10.01,0,*63
1514538107.64,51010,6.0,71882.0,-9.53,-9.93,-9.93,0,*5A
1514538108.83,51011,6.0,71882.3,-9.55,-9.97,-9.97,0,*5D
1514538110.03,51012,6.0,71884.3,-9.55,-10.01,-10.01,0,*5E
1514538111.22,51013,6.0,71880.5,-9.55,-9.97,-9.97,0,*5F
1514538112.42,51014,6.0,71884.0,-9.55,-10.01,-9.97,0,*6F
1514538113.61,51015,6.0,71882.5,-9.55,-10.01,-9.97,0,*6E
1514538114.8,51016,6.0,71880.8,-9.55,-9.97,-9.97,0,*5A
1514538115.99,51017,6.0,71884.5,-9.55,-9.97,-9.97,0,*5B
1514538117.19,51018,6.0,71882.8,-9.55,-9.97,-10.01,0,*63
1514538118.38,51019,6.0,71880.0,-9.55,-10.01,-9.97,0,*62
1514538119.57,51020,6.0,71882.5,-9.55,-9.97,-9.97,0,*5F
1514538120.76,51021,6.0,71880.0,-9.55,-9.97,-9.97,0,*5E
1514538121.95,51022,6.0,71884.5,-9.55,-9.97,-9.97,0,*5D
1514538123.14,51023,6.0,71880.3,-9.55,-9.97,-9.97,0,*5C
1514538124.32,51024,6.0,71880.3,-9.55,-9.97,-9.97,0,*5B
1514538125.51,51025,6.0,71880.0,-9.55,-9.97,-9.97,0,*5A
1514538126.7,51026,6.0,71878.8,-9.55,-9.97,-9.97,0,*59
1514538127.92,51027,6.0,71882.3,-9.57,-10.01,-9.97,0,*6D
1514538129.12,51028,6.0,71880.8,-9.55,-9.97,-10.01,0,*60
1514538130.31,51029,6.0,71880.8,-9.55,-10.01,-9.97,0,*61
1514538131.5,51030,6.0,71880.5,-9.55,-9.97,-9.97,0,*5E
1514538132.69,51031,6.0,71880.0,-9.55,-9.97,-9.97,0,*5F
1514538133.88,51032,6.0,71878.8,-9.55,-9.97,-9.89,0,*53
1514538135.06,51033,6.0,71880.8,-9.55,-9.97,-9.89,0,*52
1514538136.25,51034,6.0,71882.8,-9.55,-9.97,-9.97,0,*5A
1514538137.45,51035,6.0,71882.5,-9.55,-10.01,-9.97,0,*6C
1514538138.63,51036,6.0,71878.8,-9.55,-9.89,-9.89,0,*58
1514538139.81,51037,6.0,71882.8,-9.55,-9.89,-9.97,0,*56
1514538141.0,51038,6.0,71884.0,-9.55,-9.89,-9.89,0,*56
1514538142.18,51039,6.0,71880.8,-9.55,-9.89,-9.97,0,*58
1514538143.42,51040,6.0,71882.5,-9.53,-9.83,-9.93,0,*5E
1514538144.64,51041,6.0,71880.5,-9.53,-9.93,-9.93,0,*5E
1514538145.91,51042,6.0,71880.3,-9.53,-9.83,-9.83,0,*5D
1514538147.17,51043,6.0,71880.3,-9.53,-9.83,-9.83,0,*5C
1514538148.4,51044,6.0,71882.0,-9.51,-9.83,-9.83,0,*59
1514538149.67,51045,6.0,71882.5,-9.53,-9.83,-9.83,0,*5A
1514538150.88,51046,6.0,71882.5,-9.51,-9.93,-9.83,0,*5A
1514538152.09,51047,6.0,71884.5,-9.53,-9.93,-9.79,0,*5C
1514538153.33,51048,6.0,71882.5,-9.53,-9.93,-9.83,0,*56
1514538154.58,51049,6.0,71882.8,-9.53,-9.79,-9.83,0,*53
1514538155.85,51050,6.0,71880.8,-9.53,-9.83,-9.83,0,*5E
1514538157.11,51051,6.0,71882.3,-9.53,-9.83,-9.83,0,*5F
1514538158.35,51052,6.0,71880.3,-9.53,-9.83,-9.79,0,*59
1514538159.56,51053,6.0,71880.0,-9.51,-9.83,-9.79,0,*5A
1514538160.81,51054,6.0,71884.5,-9.53,-9.79,-9.83,0,*5F
1514538162.02,51055,6.0,71880.3,-9.51,-9.83,-9.79,0,*5C
1514538163.2,51056,6.0,71880.3,-9.55,-9.89,-9.89,0,*5E
1514538164.44,51057,6.0,71882.8,-9.53,-9.93,-9.83,0,*58
1514538165.7,51058,6.0,71882.0,-9.53,-9.83,-9.83,0,*56
1514538166.97,51059,6.0,71878.8,-9.53,-9.83,-9.83,0,*57
1514538168.2,51060,6.0,71880.5,-9.51,-9.83,-9.83,0,*5F
1514538169.41,51061,6.0,71884.3,-9.51,-9.83,-9.79,0,*5B
1514538170.65,51062,6.0,71882.8,-9.51,-9.83,-9.83,0,*5D
1514538171.91,51063,6.0,71882.0,-9.53,-9.83,-9.83,0,*5E
1514538173.18,51064,6.0,71884.3,-9.53,-9.83,-9.83,0,*59
1514538174.4,51065,6.0,71882.0,-9.53,-9.79,-9.79,0,*58
1514538175.63,51066,6.0,71884.0,-9.51,-9.83,-9.83,0,*59
1514538176.9,51067,6.0,71882.0,-9.53,-9.83,-9.83,0,*5A
1514538178.16,51068,6.0,71884.5,-9.53,-9.83,-9.83,0,*55
1514538179.37,51069,6.0,71882.0,-9.51,-9.83,-9.79,0,*53
1514538180.61,51070,6.0,71882.8,-9.51,-9.83,-9.83,0,*5E
1514538181.82,51071,6.0,71882.0,-9.51,-9.83,-9.79,0,*5A
1514538183.05,51072,6.0,71884.0,-9.51,-9.83,-9.83,0,*5C
1514538184.28,51073,6.0,71884.0,-9.51,-9.83,-9.83,0,*5D
1514538185.48,51074,6.0,71886.3,-9.51,-9.79,-9.79,0,*5A
1514538186.72,51075,6.0,71886.5,-9.53,-9.83,-9.79,0,*5C
1514538187.95,51076,6.0,71884.8,-9.51,-9.83,-9.83,0,*58
1514538189.18,51077,6.0,71880.8,-9.51,-9.83,-9.83,0,*59
1514538190.42,51078,6.0,71882.0,-9.51,-9.83,-9.83,0,*56
1514538191.68,51079,6.0,71882.0,-9.53,-9.83,-9.83,0,*55
1514538192.9,51080,6.0,71884.5,-9.49,-9.75,-9.79,0,*54
1514538194.14,51081,6.0,71880.5,-9.51,-9.83,-9.83,0,*50
1514538195.37,51082,6.0,71884.0,-9.51,-9.83,-9.83,0,*53
1514538196.58,51083,6.06,71884.8,-9.51,-9.83,-9.79,0,*57
1514538197.79,51084,6.0,71884.3,-9.51,-9.83,-9.79,0,*50
1514538199.0,51085,6.0,71886.5,-9.51,-9.83,-9.79,0,*51
1514538200.21,51086,6.0,71882.3,-9.51,-9.83,-9.79,0,*52
1514538201.42,51087,6.0,71882.0,-9.51,-9.83,-9.79,0,*53
1514538202.63,51088,6.0,71884.3,-9.51,-9.83,-9.79,0,*5C
1514538203.84,51089,6.0,71884.8,-9.51,-9.83,-9.79,0,*5D
1514538205.06,51090,6.0,71886.5,-9.49,-9.75,-9.79,0,*55
1514538206.28,51091,6.0,71880.0,-9.49,-9.79,-9.79,0,*58
1514538207.51,51092,6.0,71886.8,-9.51,-9.83,-9.83,0,*52
1514538208.73,51093,6.0,71882.3,-9.51,-9.79,-9.83,0,*56
1514538209.94,51094,6.0,71886.0,-9.51,-9.83,-9.79,0,*51
1514538211.13,51095,6.0,71886.3,-9.51,-9.79,-9.79,0,*55
1514538212.35,51096,6.0,71880.0,-9.49,-9.75,-9.75,0,*5F
1514538213.56,51097,6.0,71882.5,-9.49,-9.67,-9.75,0,*5D
1514538214.78,51098,6.0,71886.3,-9.49,-9.75,-9.67,0,*52
1514538216.0,51099,6.0,71880.5,-9.49,-9.79,-9.67,0,*5F
1514538217.22,51100,6.0,71884.3,-9.49,-9.67,-9.67,0,*51
1514538218.44,51101,6.0,71884.5,-9.49,-9.75,-9.67,0,*53
1514538219.66,51102,6.0,71884.3,-9.49,-9.75,-9.75,0,*53
1514538220.87,51103,6.0,71884.5,-9.49,-9.75,-9.79,0,*5E
1514538222.09,51104,6.0,71884.8,-9.49,-9.79,-9.79,0,*55
1514538223.33,51105,6.0,71886.3,-9.45,-9.75,-9.79,0,*54
1514538224.56,51106,6.0,71884.5,-9.45,-9.79,-9.67,0,*54
1514538225.78,51107,6.0,71880.5,-9.49,-9.75,-9.79,0,*5A
1514538227.01,51108,6.0,71882.8,-9.45,-9.79,-9.75,0,*59
1514538228.23,51109,6.0,71880.5,-9.49,-9.75,-9.75,0,*58
1514538229.44,51110,6.0,71880.5,-9.49,-9.75,-9.75,0,*50
1514538230.66,51111,6.0,71882.0,-9.49,-9.79,-9.75,0,*5D
1514538231.89,51112,6.0,71886.8,-9.45,-9.75,-9.75,0,*5E
1514538233.12,51113,6.0,71882.0,-9.45,-9.75,-9.75,0,*5F
1514538234.36,51114,6.0,71882.8,-9.45,-9.79,-9.79,0,*58
1514538235.59,51115,6.0,71880.5,-9.45,-9.79,-9.79,0,*59
1514538236.81,51116,6.0,71884.3,-9.49,-9.79,-9.79,0,*56
1514538238.03,51117,6.0,71882.5,-9.49,-9.75,-9.79,0,*5B
1514538239.24,51118,6.0,71882.5,-9.49,-9.79,-9.75,0,*54
1514538240.47,51119,6.0,71886.0,-9.45,-9.75,-9.75,0,*55
1514538241.71,51120,6.0,71884.0,-9.45,-9.79,-9.79,0,*5F
1514538242.94,51121,6.0,71880.8,-9.45,-9.75,-9.75,0,*5E
1514538244.17,51122,6.0,71882.0,-9.45,-9.75,-9.79,0,*51
1514538245.4,51123,6.0,71882.0,-9.45,-9.75,-9.75,0,*5C
1514538246.63,51124,6.0,71886.8,-9.45,-9.79,-9.79,0,*5B
1514538247.86,51125,6.0,71882.8,-9.45,-9.75,-9.75,0,*5A
1514538249.09,51126,6.0,71880.5,-9.45,-9.75,-9.75,0,*59
1514538250.33,51127,6.0,71880.3,-9.45,-9.79,-9.75,0,*54
1514538251.56,51128,6.0,71884.3,-9.45,-9.79,-9.79,0,*57
1514538252.79,51129,6.0,71882.8,-9.45,-9.79,-9.75,0,*5A
1514538254.02,51130,6.06,71884.3,-9.45,-9.75,-9.75,0,*5E
1514538255.25,51131,6.0,71882.5,-9.45,-9.75,-9.79,0,*53
1514538256.48,51132,6.0,71884.5,-9.45,-9.79,-9.79,0,*5C
1514538257.7,51133,6.06,71886.5,-9.49,-9.75,-9.79,0,*5D
1514538258.92,51134,6.0,71882.8,-9.49,-9.75,-9.75,0,*56
1514538260.16,51135,6.0,71884.3,-9.45,-9.79,-9.79,0,*5B
1514538261.39,51136,6.0,71882.5,-9.45,-9.75,-9.79,0,*54
1514538262.62,51137,6.0,71882.0,-9.45,-9.79,-9.79,0,*59
1514538263.85,51138,6.0,71880.5,-9.45,-9.79,-9.79,0,*56
1514538265.08,51139,6.0,71882.0,-9.45,-9.79,-9.79,0,*57
1514538266.31,51140,6.0,71880.8,-9.45,-9.79,-9.75,0,*55
1514538267.52,51141,6.0,71880.3,-9.43,-9.75,-9.71,0,*5A
1514538268.73,51142,6.0,71880.8,-9.43,-9.75,-9.71,0,*59
1514538269.94,51143,6.0,71880.5,-9.43,-9.75,-9.75,0,*5C
1514538271.17,51144,6.0,71880.0,-9.45,-9.75,-9.79,0,*51
1514538272.4,51145,6.0,71880.0,-9.45,-9.79,-9.75,0,*50
1514538273.63,51146,6.0,71880.5,-9.45,-9.75,-9.75,0,*5F
1514538274.86,51147,6.06,71886.5,-9.45,-9.75,-9.75,0,*5E
1514538276.09,51148,6.06,71884.5,-9.45,-9.79,-9.75,0,*5D
1514538277.35,51149,6.0,71882.8,-9.45,-9.61,-9.71,0,*51
1514538278.55,51150,6.0,71884.5,-9.43,-9.75,-9.71,0,*5A
1514538279.77,51151,6.0,71882.0,-9.43,-9.71,-9.75,0,*5B
1514538280.97,51152,6.0,71880.8,-9.43,-9.75,-9.75,0,*5C
1514538282.18,51153,6.0,71882.5,-9.43,-9.71,-9.75,0,*59
1514538283.4,51154,6.06,71886.8,-9.43,-9.71,-9.71,0,*5A
1514538284.6,51155,6.06,71884.3,-9.43,-9.75,-9.71,0,*5F
1514538285.84,51156,6.06,71884.8,-9.41,-9.71,-9.71,0,*5A
1514538287.07,51157,6.0,71880.5,-9.43,-9.75,-9.61,0,*5C
1514538288.31,51158,6.0,71882.8,-9.43,-9.71,-9.61,0,*57
1514538289.54,51159,6.0,71880.5,-9.41,-9.75,-9.71,0,*51
1514538290.76,51160,6.06,71884.3,-9.43,-9.71,-9.75,0,*59
1514538292.02,51161,6.0,71884.0,-9.41,-9.71,-9.61,0,*5F
1514538293.25,51162,6.0,71882.0,-9.43,-9.61,-9.71,0,*5E
1514538294.46,51163,6.0,71882.5,-9.43,-9.71,-9.71,0,*5E
1514538295.71,51164,6.0,71878.3,-9.43,-9.61,-9.61,0,*59
1514538296.99,51165,6.0,71878.8,-9.41,-9.61,-9.61,0,*5A
1514538298.25,51166,6.0,71880.5,-9.41,-9.71,-9.61,0,*58
1514538299.49,51167,6.0,71882.0,-9.43,-9.71,-9.61,0,*5B
1514538300.74,51168,6.0,71880.5,-9.43,-9.61,-9.61,0,*55
1514538301.97,51169,6.0,71882.0,-9.43,-9.71,-9.57,0,*50
1514538303.22,51170,6.0,71880.0,-9.43,-9.61,-9.61,0,*5C
1514538304.49,51171,6.06,71886.5,-9.41,-9.61,-9.57,0,*5A
1514538305.77,51172,6.06,71884.3,-9.41,-9.61,-9.61,0,*5C
1514538307.05,51173,6.0,71880.8,-9.41,-9.61,-9.57,0,*58
1514538308.32,51174,6.0,71882.5,-9.41,-9.61,-9.57,0,*5F
1514538309.57,51175,6.0,71882.8,-9.43,-9.61,-9.61,0,*59
1514538310.85,51176,6.0,71882.3,-9.41,-9.61,-9.61,0,*58
1514538312.13,51177,6.0,71880.5,-9.41,-9.61,-9.57,0,*5C
1514538313.37,51178,6.06,71882.5,-9.43,-9.57,-9.61,0,*51
1514538314.65,51179,6.0,71882.8,-9.41,-9.61,-9.57,0,*52
1514538315.93,51180,6.0,71880.5,-9.41,-9.61,-9.61,0,*51
1514538317.2,51181,6.0,71884.3,-9.41,-9.61,-9.57,0,*55
1514538318.44,51182,6.0,71880.0,-9.39,-9.57,-9.57,0,*5C
1514538319.69,51183,6.0,71880.0,-9.39,-9.53,-9.57,0,*59
1514538320.94,51184,6.0,71880.3,-9.39,-9.57,-9.53,0,*5E
1514538322.22,51185,6.0,71882.5,-9.41,-9.61,-9.61,0,*54
1514538323.49,51186,6.0,71880.0,-9.41,-9.61,-9.61,0,*57
1514538324.74,51187,6.0,71884.5,-9.39,-9.53,-9.57,0,*5D
1514538326.02,51188,6.0,71882.0,-9.41,-9.61,-9.61,0,*59
1514538327.26,51189,6.0,71880.3,-9.39,-9.57,-9.53,0,*53
1514538328.49,51190,6.0,71880.5,-9.39,-9.67,-9.53,0,*58
1514538329.73,51191,6.0,71882.0,-9.39,-9.71,-9.53,0,*5E
1514538330.94,51192,6.0,71882.3,-9.39,-9.71,-9.67,0,*5A
1514538332.18,51193,6.0,71884.0,-9.39,-9.57,-9.57,0,*5C
1514538333.4,51194,6.06,71884.3,-9.39,-9.67,-9.57,0,*58
1514538334.65,51195,6.0,71880.8,-9.37,-9.67,-9.57,0,*57
1514538335.86,51196,6.06,71886.3,-9.39,-9.71,-9.67,0,*5E
1514538337.09,51197,6.0,71882.5,-9.39,-9.71,-9.53,0,*58
1514538338.3,51198,6.06,71886.3,-9.39,-9.67,-9.71,0,*50
1514538339.5,51199,6.0,71884.3,-9.39,-9.67,-9.67,0,*56
1514538340.72,51200,6.06,71884.0,-9.39,-9.57,-9.67,0,*56
1514538341.92,51201,6.0,71876.5,-9.39,-9.67,-9.67,0,*54
1514538343.17,51202,6.0,71880.8,-9.37,-9.67,-9.57,0,*5A
1514538344.39,51203,6.0,71880.0,-9.39,-9.57,-9.67,0,*55
1514538345.64,51204,6.06,71884.0,-9.37,-9.67,-9.57,0,*5C
1514538346.9,51205,6.0,71882.0,-9.37,-9.67,-9.57,0,*5D
1514538348.15,51206,6.0,71882.3,-9.37,-9.67,-9.57,0,*5E
1514538349.37,51207,6.06,71886.0,-9.39,-9.57,-9.67,0,*51
1514538350.62,51208,6.0,71876.8,-9.37,-9.57,-9.67,0,*50
1514538351.86,51209,6.0,71882.0,-9.39,-9.57,-9.57,0,*5C
1514538353.08,51210,6.0,71882.3,-9.39,-9.67,-9.57,0,*57
1514538354.36,51211,6.0,71880.5,-9.37,-9.57,-9.53,0,*5F
1514538355.61,51212,6.0,71880.0,-9.37,-9.67,-9.57,0,*5B
1514538356.88,51213,6.0,71880.5,-9.37,-9.57,-9.57,0,*59
1514538358.15,51214,6.0,71880.8,-9.37,-9.57,-9.57,0,*5E
1514538359.37,51215,6.06,71882.0,-9.39,-9.67,-9.57,0,*52
1514538360.63,51216,6.0,71882.3,-9.37,-9.67,-9.57,0,*5F
1514538361.9,51217,6.06,71882.5,-9.37,-9.57,-9.57,0,*5D
1514538363.17,51218,6.06,71884.0,-9.37,-9.53,-9.57,0,*56
1514538364.44,51219,6.06,71882.0,-9.37,-9.57,-9.57,0,*53
1514538365.68,51220,6.0,71882.8,-9.39,-9.57,-9.57,0,*57
1514538366.96,51221,6.0,71880.3,-9.37,-9.53,-9.57,0,*5C
1514538368.23,51222,6.0,71880.8,-9.37,-9.53,-9.57,0,*5F
1514538369.51,51223,6.0,71884.0,-9.37,-9.57,-9.53,0,*5E
1514538370.76,51224,6.06,71884.3,-9.37,-9.67,-9.57,0,*5E
1514538372.04,51225,6.06,71884.5,-9.37,-9.57,-9.53,0,*58
1514538373.29,51226,6.0,71882.0,-9.37,-9.67,-9.57,0,*5C
1514538374.55,51227,6.0,71880.0,-9.37,-9.71,-9.53,0,*5E
1514538375.81,51228,6.0,71882.5,-9.37,-9.67,-9.53,0,*56
1514538377.07,51229,6.0,71884.8,-9.35,-9.61,-9.53,0,*53
1514538378.34,51230,6.0,71880.5,-9.37,-9.57,-9.57,0,*58
1514538379.61,51231,6.0,71882.0,-9.37,-9.57,-9.53,0,*5D
1514538380.88,51232,6.0,71880.3,-9.37,-9.57,-9.57,0,*5A
1514538382.14,51233,6.06,71884.0,-9.35,-9.53,-9.53,0,*59
1514538383.39,51234,6.0,71882.5,-9.35,-9.53,-9.49,0,*55
1514538384.67,51235,6.0,71884.8,-9.37,-9.53,-9.57,0,*59
1514538385.92,51236,6.0,71880.5,-9.35,-9.49,-9.49,0,*5C
1514538387.17,51237,6.0,71882.8,-9.35,-9.53,-9.49,0,*56
1514538388.43,51238,6.0,71880.8,-9.35,-9.53,-9.53,0,*52
1514538389.7,51239,6.06,71886.5,-9.33,-9.53,-9.49,0,*5E
1514538390.96,51240,6.06,71884.3,-9.35,-9.49,-9.53,0,*56
1514538392.21,51241,6.0,71882.0,-9.35,-9.53,-9.49,0,*57
1514538393.46,51242,6.0,71884.3,-9.35,-9.53,-9.49,0,*54
1514538394.72,51243,6.0,71880.5,-9.35,-9.61,-9.53,0,*5F
1514538395.97,51244,6.0,71882.3,-9.35,-9.49,-9.53,0,*52
1514538397.25,51245,6.06,71886.5,-9.33,-9.53,-9.53,0,*5E
1514538398.51,51246,6.06,71884.5,-9.35,-9.49,-9.61,0,*51
1514538399.78,51247,6.0,71886.5,-9.33,-9.53,-9.61,0,*5D
1514538401.04,51248,6.0,71884.5,-9.35,-9.49,-9.53,0,*5E
1514538402.29,51249,6.0,71882.3,-9.35,-9.53,-9.53,0,*54
1514538403.54,51250,6.0,71884.0,-9.35,-9.53,-9.49,0,*57
1514538404.8,51251,6.0,71880.0,-9.35,-9.49,-9.61,0,*57
1514538406.05,51252,6.0,71882.0,-9.35,-9.53,-9.49,0,*55
1514538407.33,51253,6.06,71884.3,-9.33,-9.61,-9.49,0,*53
1514538408.58,51254,6.06,71884.5,-9.35,-9.53,-9.53,0,*58
1514538409.83,51255,6.0,71880.8,-9.35,-9.53,-9.53,0,*59
1514538411.09,51256,6.0,71886.0,-9.35,-9.49,-9.53,0,*51
1514538412.35,51257,6.06,71886.8,-9.35,-9.53,-9.53,0,*5B
1514538413.6,51258,6.0,71880.0,-9.35,-9.53,-9.53,0,*54
1514538414.86,51259,6.06,71882.0,-9.35,-9.53,-9.53,0,*55
1514538416.11,51260,6.06,71882.5,-9.35,-9.53,-9.61,0,*5E
1514538417.38,51261,6.06,71882.8,-9.33,-9.61,-9.61,0,*58
1514538418.64,51262,6.0,71878.8,-9.35,-9.61,-9.53,0,*5C
1514538419.89,51263,6.0,71880.0,-9.35,-9.61,-9.61,0,*5C
1514538421.14,51264,6.0,71878.8,-9.35,-9.61,-9.61,0,*5B
1514538422.39,51265,6.06,71884.3,-9.33,-9.67,-9.61,0,*5A
1514538423.64,51266,6.0,71880.8,-9.35,-9.61,-9.61,0,*59
1514538424.92,51267,6.06,71880.8,-9.33,-9.61,-9.61,0,*5E
1514538426.19,51268,6.0,71880.8,-9.33,-9.61,-9.61,0,*51
1514538427.42,51269,6.0,71876.3,-9.33,-9.67,-9.67,0,*50
1514538428.65,51270,6.0,71876.8,-9.33,-9.67,-9.67,0,*58
1514538429.88,51271,6.06,71880.3,-9.33,-9.67,-9.67,0,*59
1514538431.11,51272,6.0,71882.3,-9.35,-9.67,-9.61,0,*5A
1514538432.31,51273,6.0,71882.5,-9.35,-9.67,-9.67,0,*5D
1514538433.54,51274,6.0,71878.8,-9.35,-9.67,-9.61,0,*5C
1514538434.79,51275,6.0,71876.5,-9.33,-9.61,-9.67,0,*5B
1514538436.0,51276,6.0,71880.5,-9.35,-9.67,-9.67,0,*58
1514538437.23,51277,6.06,71880.8,-9.33,-9.67,-9.67,0,*5F
1514538438.48,51278,6.06,71880.8,-9.33,-9.61,-9.75,0,*55
1514538439.71,51279,6.06,71880.5,-9.33,-9.79,-9.79,0,*51
1514538440.94,51280,6.0,71878.3,-9.33,-9.67,-9.75,0,*54
1514538442.15,51281,6.06,71880.0,-9.35,-9.67,-9.67,0,*50
1514538443.38,51282,6.0,71878.5,-9.33,-9.75,-9.67,0,*56
1514538444.61,51283,6.0,71878.3,-9.33,-9.75,-9.67,0,*57
1514538445.84,51284,6.0,71876.3,-9.33,-9.75,-9.75,0,*53
1514538447.07,51285,6.0,71878.5,-9.33,-9.75,-9.79,0,*5E
1514538448.3,51286,6.06,71880.0,-9.33,-9.79,-9.67,0,*5E
1514538449.51,51287,6.0,71876.0,-9.35,-9.67,-9.75,0,*55
1514538450.72,51288,6.0,71874.0,-9.35,-9.75,-9.75,0,*59
1514538451.95,51289,6.06,71882.0,-9.33,-9.75,-9.75,0,*5E
1514538453.2,51290,6.0,71878.8,-9.33,-9.61,-9.67,0,*50
1514538454.41,51291,6.0,71876.8,-9.35,-9.79,-9.67,0,*5E
1514538455.61,51292,6.0,71878.3,-9.35,-9.75,-9.75,0,*52
1514538456.84,51293,6.0,71878.5,-9.33,-9.75,-9.75,0,*55
1514538458.08,51294,6.0,71874.0,-9.33,-9.75,-9.67,0,*51
1514538459.31,51295,6.0,71878.3,-9.33,-9.75,-9.67,0,*50
1514538460.52,51296,6.0,71876.3,-9.35,-9.75,-9.75,0,*56
1514538461.75,51297,6.0,71876.5,-9.33,-9.75,-9.67,0,*52
1514538462.98,51298,6.0,71878.5,-9.33,-9.75,-9.75,0,*5E
1514538464.21,51299,6.06,71880.8,-9.33,-9.75,-9.75,0,*5F
1514538465.42,51300,6.06,71878.0,-9.35,-9.75,-9.67,0,*5B
1514538466.62,51301,6.0,71876.8,-9.35,-9.67,-9.67,0,*59
1514538467.9,51302,6.0,71876.0,-9.33,-9.61,-9.61,0,*5C
1514538469.15,51303,6.0,71876.0,-9.33,-9.61,-9.67,0,*5B
1514538470.4,51304,6.0,71878.3,-9.33,-9.61,-9.67,0,*5C
1514538471.67,51305,6.0,71876.3,-9.33,-9.61,-9.61,0,*5B
1514538472.93,51306,6.0,71876.3,-9.33,-9.61,-9.67,0,*5E
1514538474.18,51307,6.0,71872.8,-9.33,-9.53,-9.67,0,*5E
1514538475.43,51308,6.0,71878.5,-9.33,-9.67,-9.61,0,*50
1514538476.66,51309,6.06,71878.8,-9.33,-9.67,-9.67,0,*57
1514538477.91,51310,6.06,71876.8,-9.33,-9.61,-9.67,0,*59
1514538479.14,51311,6.0,71878.0,-9.35,-9.67,-9.61,0,*5E
1514538480.39,51312,6.06,71878.3,-9.35,-9.61,-9.61,0,*5B
1514538481.65,51313,6.06,71880.0,-9.33,-9.75,-9.61,0,*59
1514538482.85,51314,6.0,71876.8,-9.35,-9.67,-9.67,0,*5D
1514538484.1,51315,6.0,71878.5,-9.33,-9.67,-9.61,0,*5C
1514538485.36,51316,6.0,71876.3,-9.33,-9.61,-9.67,0,*5F
1514538486.61,51317,6.06,71878.5,-9.33,-9.67,-9.61,0,*5E
1514538487.88,51318,6.06,71878.3,-9.33,-9.61,-9.61,0,*57
1514538489.14,51319,6.0,71874.0,-9.33,-9.67,-9.61,0,*50
1514538490.41,51320,6.06,71876.8,-9.33,-9.61,-9.61,0,*5C
1514538491.66,51321,6.0,71876.3,-9.33,-9.67,-9.61,0,*5B
1514538492.92,51322,6.06,71880.0,-9.33,-9.67,-9.61,0,*58
1514538494.17,51323,6.0,71874.0,-9.35,-9.61,-9.61,0,*59
1514538495.44,51324,6.06,71876.5,-9.33,-9.61,-9.61,0,*58
1514538496.72,51325,6.06,71876.5,-9.33,-9.61,-9.53,0,*58
1514538498.0,51326,6.0,71872.5,-9.33,-9.61,-9.61,0,*5A
1514538499.27,51327,6.0,71874.3,-9.33,-9.61,-9.61,0,*5B
1514538500.51,51328,6.0,71874.5,-9.31,-9.57,-9.57,0,*56
1514538501.76,51329,6.0,71872.3,-9.31,-9.57,-9.49,0,*58
1514538503.04,51330,6.0,71874.0,-9.33,-9.53,-9.53,0,*5D
1514538504.29,51331,6.0,71874.8,-9.31,-9.57,-9.61,0,*5B
1514538505.54,51332,6.0,71874.0,-9.31,-9.49,-9.57,0,*52
1514538506.79,51333,6.06,71876.3,-9.31,-9.61,-9.57,0,*59
1514538508.04,51334,6.06,71874.8,-9.31,-9.49,-9.57,0,*54
1514538509.29,51335,6.0,71874.0,-9.31,-9.49,-9.57,0,*55
1514538510.54,51336,6.06,71874.5,-9.31,-9.57,-9.45,0,*5A
1514538511.81,51337,6.06,71878.0,-9.33,-9.61,-9.61,0,*5A
1514538513.09,51338,6.0,71872.8,-9.33,-9.61,-9.53,0,*54
1514538514.34,51339,6.06,71874.3,-9.33,-9.67,-9.53,0,*53
1514538515.62,51340,6.06,71874.8,-9.33,-9.61,-9.53,0,*5B
1514538516.9,51341,6.06,71872.5,-9.29,-9.61,-9.49,0,*5A
1514538518.14,51342,6.0,71868.3,-9.31,-9.57,-9.57,0,*5A
1514538519.39,51343,6.06,71876.8,-9.31,-9.61,-9.61,0,*5B
1514538520.64,51344,6.06,71872.8,-9.31,-9.57,-9.57,0,*5C
1514538521.91,51345,6.06,71876.0,-9.29,-9.57,-9.57,0,*54
1514538523.16,51346,6.0,71876.0,-9.33,-9.61,-9.67,0,*5A